IRNSS-R1D

operational
NORAD ID: 40547 Int'l Des: 2015-018 Owner: ISRO Country: IN
HEOCIRCULAR

About IRNSS-R1D

Description loading...

Live Position

Loading 3D Globe...

Upcoming Passes

Altitude History

Altitude vs Time

uPlot chart will show altitude changes over time

Two-Line Element Set

1 40547U 15018A 26061.36447939 -.00000105 00000-0 00000+0 0 9991
2 40547 19.7916 240.9691 0008387 358.1040 3.3185 0.97958851 39861
Epoch: Mar 2, 2026 • Age: 29 hours

Current Status

Altitude 36431.2 km
Velocity 3.05 km/s
Sub-Earth Point -16.65°S, 54.51°W
Launch Date Mar 28, 2015
Age 10.9 years
Type other

Technical Details

Classification Payload
Mass 1425.00 kg
Dry Mass 603.00 kg
Total Mass 1425.00 kg
Length 1.60 m
Diameter 1.50 m
Span 10.00 m
Shape Box + 2 Pan
Manufacturer ISAC
Bus Type I1K
Phase Status In Orbit
Owner/State ISRO/IN

Large Constellations

Loading constellations...